When you browse on this site, cookies collect data to enhance your experience and personalize the content and advertising you see.
Visit our Privacy Policy to learn more. By continuing to use the site, you agree to this use of cookies and data.
  • In Hungary
  • List of Countries
  • For 7 days
  • Water Temperature
  • Weather Map
  • News
  • Weather Widgets
  • user-avatar
    Login

    Hourly Weather Monrovia

    Today, 12 December, Thursday

    Time Temperature Precipitation Wind Pressure Humidity
    00:00 +27°C° 0.8 mm 1 mps 757 mmHg 86%
    01:00 +27°C° 0.8 mm 1 mps 757 mmHg 88%
    02:00 +26°C° 0.8 mm 1 mps 757 mmHg 90%
    03:00 +26°C° 0.5 mm 1 mps 757 mmHg 90%
    04:00 +26°C° 0.5 mm 1 mps 757 mmHg 91%
    05:00 +26°C° 0.5 mm 1 mps 757 mmHg 91%
    06:00 +27°C° 0.1 mm 1 mps 757 mmHg 88%
    07:00 +28°C° 0.1 mm 1 mps 758 mmHg 84%
    08:00 +29°C° 0.1 mm 1 mps 758 mmHg 81%
    09:00 +30°C° 0 mm 1 mps 758 mmHg 73%
    10:00 +32°C° 0 mm 1 mps 758 mmHg 66%
    11:00 +34°C° 0 mm 1 mps 758 mmHg 58%
    12:00 +33°C° 0 mm 1 mps 757 mmHg 61%
    13:00 +32°C° 0 mm 1 mps 756 mmHg 64%
    14:00 +31°C° 0 mm 2 mps 756 mmHg 67%
    15:00 +31°C° 0 mm 2 mps 756 mmHg 69%
    16:00 +30°C° 0 mm 2 mps 756 mmHg 72%
    17:00 +30°C° 0 mm 3 mps 756 mmHg 74%
    18:00 +29°C° 0 mm 2 mps 757 mmHg 77%
    19:00 +29°C° 0 mm 2 mps 757 mmHg 79%
    20:00 +28°C° 0 mm 2 mps 758 mmHg 81%
    21:00 +28°C° 0 mm 2 mps 758 mmHg 82%
    22:00 +28°C° 0 mm 1 mps 758 mmHg 83%
    23:00 +27°C° 0 mm 1 mps 758 mmHg 83%

    Tomorrow, 13 December, Friday

    Time Temperature Precipitation Wind Pressure Humidity
    00:00 +27°C° 0 mm 1 mps 758 mmHg 83%
    01:00 +27°C° 0 mm 1 mps 757 mmHg 84%
    02:00 +27°C° 0 mm 1 mps 757 mmHg 84%
    03:00 +27°C° 0 mm 1 mps 757 mmHg 86%
    04:00 +26°C° 0 mm 1 mps 757 mmHg 88%
    05:00 +26°C° 0 mm 1 mps 758 mmHg 89%
    06:00 +27°C° 0.1 mm 1 mps 758 mmHg 84%
    07:00 +29°C° 0.1 mm 1 mps 759 mmHg 79%
    08:00 +30°C° 0.1 mm 1 mps 759 mmHg 74%
    09:00 +31°C° 0 mm 1 mps 759 mmHg 71%
    10:00 +31°C° 0 mm 1 mps 758 mmHg 67%
    11:00 +32°C° 0 mm 1 mps 758 mmHg 64%
    12:00 +32°C° 0.1 mm 2 mps 757 mmHg 65%
    13:00 +31°C° 0.1 mm 2 mps 757 mmHg 67%
    14:00 +31°C° 0.1 mm 2 mps 756 mmHg 68%
    15:00 +31°C° 0.3 mm 2 mps 756 mmHg 71%
    16:00 +30°C° 0.3 mm 2 mps 756 mmHg 74%
    17:00 +29°C° 0.3 mm 2 mps 757 mmHg 77%
    18:00 +29°C° 0 mm 2 mps 757 mmHg 79%
    19:00 +28°C° 0 mm 2 mps 758 mmHg 81%
    20:00 +28°C° 0 mm 2 mps 758 mmHg 83%
    21:00 +28°C° 0 mm 2 mps 758 mmHg 84%
    22:00 +28°C° 0 mm 2 mps 758 mmHg 85%
    23:00 +27°C° 0 mm 2 mps 758 mmHg 85%

    Day after tomorrow, 14 December, Saturday

    Time Temperature Precipitation Wind Pressure Humidity
    00:00 +27°C° 0 mm 2 mps 758 mmHg 86%
    01:00 +27°C° 0 mm 2 mps 757 mmHg 87%
    02:00 +27°C° 0 mm 1 mps 757 mmHg 87%
    03:00 +26°C° 0.1 mm 2 mps 757 mmHg 89%
    04:00 +26°C° 0.1 mm 2 mps 757 mmHg 91%
    05:00 +26°C° 0.1 mm 2 mps 758 mmHg 93%
    06:00 +27°C° 0.3 mm 2 mps 758 mmHg 89%
    07:00 +28°C° 0.3 mm 3 mps 758 mmHg 85%
    08:00 +29°C° 0.3 mm 3 mps 759 mmHg 81%
    09:00 +30°C° 0.4 mm 2 mps 758 mmHg 73%
    10:00 +32°C° 0.4 mm 2 mps 758 mmHg 64%
    11:00 +34°C° 0.4 mm 1 mps 758 mmHg 56%
    12:00 +34°C° 0.3 mm 2 mps 757 mmHg 59%
    13:00 +32°C° 0.3 mm 2 mps 757 mmHg 63%
    14:00 +32°C° 0.3 mm 2 mps 756 mmHg 66%
    15:00 +31°C° 0.2 mm 2 mps 756 mmHg 69%
    16:00 +30°C° 0.2 mm 2 mps 756 mmHg 72%
    17:00 +29°C° 0.2 mm 2 mps 757 mmHg 75%
    18:00 +29°C° 0 mm 3 mps 757 mmHg 77%
    19:00 +29°C° 0 mm 3 mps 758 mmHg 79%
    20:00 +28°C° 0 mm 3 mps 758 mmHg 81%
    21:00 +28°C° 0 mm 2 mps 758 mmHg 82%
    22:00 +28°C° 0 mm 2 mps 758 mmHg 83%
    23:00 +28°C° 0 mm 2 mps 758 mmHg 84%

    15 December, Sunday

    Time Temperature Precipitation Wind Pressure Humidity
    00:00 +28°C° 0.5 mm 2 mps 758 mmHg 85%
    01:00 +27°C° 0.5 mm 2 mps 757 mmHg 86%
    02:00 +27°C° 0.5 mm 2 mps 757 mmHg 87%
    03:00 +27°C° 1.8 mm 2 mps 757 mmHg 89%
    04:00 +26°C° 1.8 mm 2 mps 757 mmHg 90%
    05:00 +26°C° 1.8 mm 1 mps 757 mmHg 92%
    06:00 +27°C° 0.7 mm 2 mps 758 mmHg 90%
    07:00 +27°C° 0.7 mm 2 mps 758 mmHg 87%
    08:00 +28°C° 0.7 mm 2 mps 758 mmHg 84%
    09:00 +30°C° 0.1 mm 2 mps 758 mmHg 76%
    10:00 +32°C° 0.1 mm 1 mps 758 mmHg 67%
    11:00 +34°C° 0.1 mm 1 mps 757 mmHg 59%
    12:00 +33°C° 0.1 mm 1 mps 757 mmHg 61%
    13:00 +32°C° 0.1 mm 2 mps 756 mmHg 64%
    14:00 +31°C° 0.1 mm 2 mps 755 mmHg 67%
    15:00 +31°C° 0.2 mm 2 mps 755 mmHg 70%
    16:00 +30°C° 0.2 mm 2 mps 756 mmHg 73%
    17:00 +30°C° 0.2 mm 2 mps 756 mmHg 75%
    18:00 +29°C° 0 mm 2 mps 756 mmHg 78%
    19:00 +29°C° 0 mm 3 mps 757 mmHg 80%
    20:00 +28°C° 0 mm 3 mps 757 mmHg 82%
    21:00 +28°C° 0 mm 3 mps 757 mmHg 82%
    22:00 +28°C° 0 mm 2 mps 757 mmHg 82%
    23:00 +28°C° 0 mm 2 mps 757 mmHg 83%

    16 December, Monday

    Time Temperature Precipitation Wind Pressure Humidity
    00:00 +28°C° 0 mm 2 mps 757 mmHg 83%
    01:00 +28°C° 0 mm 1 mps 756 mmHg 84%
    02:00 +27°C° 0 mm 1 mps 756 mmHg 84%
    03:00 +27°C° 0.7 mm 1 mps 756 mmHg 85%
    04:00 +27°C° 0.7 mm 1 mps 756 mmHg 87%
    05:00 +27°C° 0.7 mm 1 mps 756 mmHg 88%
    06:00 +28°C° 0.1 mm 1 mps 757 mmHg 84%
    07:00 +29°C° 0.1 mm 1 mps 757 mmHg 80%
    08:00 +28°C° 0.1 mm 0 mps 758 mmHg 76%
    09:00 +31°C° 0 mm 1 mps 757 mmHg 72%
    10:00 +32°C° 0 mm 1 mps 757 mmHg 68%
    11:00 +32°C° 0 mm 1 mps 757 mmHg 64%
    12:00 +32°C° 0.3 mm 2 mps 756 mmHg 66%
    13:00 +32°C° 0.3 mm 2 mps 756 mmHg 69%
    14:00 +31°C° 0.3 mm 2 mps 755 mmHg 71%
    15:00 +31°C° 0.5 mm 2 mps 755 mmHg 74%
    16:00 +30°C° 0.5 mm 2 mps 755 mmHg 78%
    17:00 +29°C° 0.5 mm 2 mps 755 mmHg 81%
    18:00 +29°C° 0.2 mm 2 mps 756 mmHg 83%
    19:00 +28°C° 0.2 mm 2 mps 756 mmHg 84%
    20:00 +28°C° 0.2 mm 3 mps 757 mmHg 86%
    21:00 +28°C° 0 mm 3 mps 757 mmHg 86%
    22:00 +28°C° 0 mm 3 mps 757 mmHg 87%
    23:00 +28°C° 0 mm 3 mps 757 mmHg 87%

    17 December, Tuesday

    Time Temperature Precipitation Wind Pressure Humidity
    00:00 +27°C° 0 mm 2 mps 756 mmHg 88%
    01:00 +27°C° 0 mm 2 mps 756 mmHg 88%
    02:00 +27°C° 0 mm 2 mps 756 mmHg 89%
    03:00 +27°C° 0.1 mm 2 mps 756 mmHg 89%
    04:00 +27°C° 0.1 mm 2 mps 756 mmHg 89%
    05:00 +27°C° 0.1 mm 2 mps 756 mmHg 89%
    06:00 +28°C° 0.1 mm 2 mps 757 mmHg 86%
    07:00 +29°C° 0.1 mm 1 mps 757 mmHg 83%
    08:00 +30°C° 0.1 mm 1 mps 758 mmHg 80%
    09:00 +31°C° 0.1 mm 1 mps 757 mmHg 75%
    10:00 +31°C° 0.1 mm 2 mps 757 mmHg 71%
    11:00 +32°C° 0.1 mm 2 mps 757 mmHg 67%
    12:00 +32°C° 0.3 mm 2 mps 756 mmHg 68%
    13:00 +32°C° 0.3 mm 2 mps 756 mmHg 68%
    14:00 +32°C° 0.3 mm 2 mps 755 mmHg 69%
    15:00 +31°C° 0.1 mm 2 mps 755 mmHg 72%
    16:00 +30°C° 0.1 mm 2 mps 755 mmHg 76%
    17:00 +29°C° 0.1 mm 2 mps 755 mmHg 79%
    18:00 +29°C° 0 mm 2 mps 756 mmHg 81%
    19:00 +28°C° 0 mm 3 mps 756 mmHg 82%
    20:00 +28°C° 0 mm 3 mps 757 mmHg 84%
    21:00 +28°C° 0 mm 3 mps 757 mmHg 85%
    22:00 +28°C° 0 mm 2 mps 757 mmHg 86%
    23:00 +27°C° 0 mm 2 mps 757 mmHg 86%
    Show more